VK4RM-13 Weather Reports


time (UTC)temp
C
wind
direction
speed
KPH
gust
KPH
rain 1hr
cm
rain 24hr
cm
rain mn
cm
humidity
%
barometer
mb
20260503021644 25 37 1.6 9.7 0.00 0.03 0.03 77 995.6
20260503020644 24 340 1.6 9.7 0.00 0.03 0.03 81 995.8
20260503015644 24 59 0.0 0.0 0.00 0.03 0.03 83 995.9
20260503014644 23 59 1.6 8.0 0.00 0.03 0.03 83 996.1
20260503013645 25 61 3.2 11.3 0.00 0.03 0.03 80 996.3
20260503012644 25 11 0.0 8.0 0.00 0.03 0.03 76 996.4
20260503011644 25 5 1.6 6.4 0.00 0.03 0.03 78 996.5
20260503010644 24 312 1.6 9.7 0.00 0.03 0.03 77 996.6
20260503005644 24 9 1.6 6.4 0.00 0.03 0.03 78 996.8
20260503004644 24 321 0.0 1.6 0.00 0.03 0.03 80 996.9
20260503003645 23 345 1.6 6.4 0.00 0.03 0.03 81 997.0
20260503002644 23 19 3.2 9.7 0.00 0.03 0.03 81 997.1
20260503001644 23 340 1.6 11.3 0.00 0.03 0.03 82 997.2
20260503000644 23 325 0.0 0.0 0.00 0.03 0.03 84 997.2
20260502235645 23 289 0.0 9.7 0.00 0.03 0.03 84 997.3
20260502234645 23 9 1.6 11.3 0.00 0.03 0.03 83 997.4
20260502233644 23 49 3.2 9.7 0.00 0.03 0.03 81 997.3
20260502232645 23 349 3.2 8.0 0.00 0.03 0.03 85 997.3
20260502231645 22 272 1.6 9.7 0.00 0.03 0.03 87 997.2
20260502230645 22 344 0.0 0.0 0.03 0.03 0.03 89 997.2
20260502225645 21 5 0.0 0.0 0.03 0.03 0.03 90 997.2
20260502224645 21 341 0.0 0.0 0.03 0.03 0.03 91 997.2
20260502223645 21 341 0.0 0.0 0.03 0.03 0.03 91 997.1
20260502222645 21 341 0.0 0.0 0.03 0.03 0.03 91 997.0
20260502221645 21 341 0.0 0.0 0.03 0.03 0.03 90 996.8
20260502220645 21 341 0.0 0.0 0.00 0.00 0.00 89 996.7
20260502215645 21 341 0.0 6.4 0.00 0.00 0.00 89 996.6
20260502214645 21 355 0.0 0.0 0.00 0.00 0.00 89 996.5
20260502213645 21 355 0.0 0.0 0.00 0.00 0.00 89 996.4
20260502212645 21 355 0.0 0.0 0.00 0.00 0.00 90 996.3
20260502211645 21 355 0.0 0.0 0.00 0.00 0.00 90 996.2
20260502210645 20 349 1.6 14.5 0.00 0.00 0.00 90 996.1
20260502205645 20 333 0.0 3.2 0.00 0.00 0.00 92 996.0
20260502204645 20 329 0.0 0.0 0.00 0.00 0.00 92 996.1
20260502203645 20 308 0.0 0.0 0.00 0.00 0.00 93 996.0
20260502202645 20 308 0.0 0.0 0.00 0.00 0.00 93 995.9
20260502201645 20 308 0.0 0.0 0.00 0.00 0.00 93 995.8
20260502200645 20 308 0.0 0.0 0.00 0.00 0.00 93 995.7
20260502195645 20 308 0.0 0.0 0.00 0.00 0.00 93 995.6
20260502194645 20 308 0.0 0.0 0.00 0.00 0.00 94 995.5
20260502193645 20 308 0.0 0.0 0.00 0.00 0.00 94 995.5
20260502192646 20 308 0.0 0.0 0.00 0.00 0.00 94 995.5
20260502191645 20 308 0.0 0.0 0.00 0.00 0.00 94 995.5
20260502190645 20 308 0.0 0.0 0.00 0.00 0.00 94 995.5
20260502185645 19 308 0.0 0.0 0.00 0.00 0.00 94 995.5
20260502184646 19 308 0.0 0.0 0.00 0.00 0.00 94 995.5
20260502183645 19 308 0.0 0.0 0.00 0.00 0.00 94 995.5
20260502182645 19 308 0.0 0.0 0.00 0.00 0.00 94 995.5
20260502181645 19 308 0.0 0.0 0.00 0.00 0.00 94 995.5
20260502180645 18 308 0.0 0.0 0.00 0.00 0.00 94 995.5
20260502163645 18 308 0.0 0.0 0.00 0.00 0.00 92 995.9
20260502162645 18 0 0.0 0.0 0.00 0.00 0.00 92 995.9
20260502161645 18 0 0.0 0.0 0.00 0.00 0.00 93 996.0
20260502160645 18 0 0.0 0.0 0.00 0.00 0.00 93 996.1
20260502151646 17 355 0.0 0.0 0.00 0.00 0.00 93 996.4
20260502150645 17 355 0.0 0.0 0.00 0.00 0.00 93 996.4
20260502130646 18 355 0.0 0.0 0.00 0.00 0.00 92 997.4
20260502123646 17 355 0.0 0.0 0.00 0.00 0.00 92 997.3
20260502122646 17 355 0.0 0.0 0.00 0.00 0.00 92 997.4
20260502121646 17 355 0.0 0.0 0.00 0.00 0.00 92 997.4
20260502120648 17 355 0.0 0.0 0.00 0.00 0.00 91 997.5
20260502115646 17 355 0.0 0.0 0.00 0.00 0.00 91 997.5
20260502114646 17 355 0.0 0.0 0.00 0.00 0.00 91 997.5
20260502113646 17 355 0.0 0.0 0.00 0.00 0.00 90 997.6
20260502112646 17 355 0.0 0.0 0.00 0.00 0.00 90 997.6
20260502111646 17 355 0.0 0.0 0.00 0.00 0.00 89 997.7
20260502110646 17 355 0.0 0.0 0.00 0.00 0.00 89 997.7
20260502105646 17 355 0.0 0.0 0.00 0.00 0.00 89 997.5
20260502104646 17 355 0.0 0.0 0.00 0.00 0.00 88 997.5
20260502103646 17 355 0.0 0.0 0.00 0.00 0.00 88 997.5
20260502102646 17 355 0.0 0.0 0.00 0.00 0.00 88 997.5
20260502101646 17 355 0.0 0.0 0.00 0.00 0.00 87 997.5
20260502100646 17 355 0.0 0.0 0.00 0.00 0.00 87 997.4
20260502090646 18 355 0.0 0.0 0.00 0.00 0.00 84 996.7
20260502070646 23 355 0.0 0.0 0.00 0.00 0.00 68 995.6
20260502065646 24 355 0.0 0.0 0.00 0.00 0.00 63 995.5
20260502064646 25 355 0.0 0.0 0.00 0.00 0.00 60 995.4
20260502063646 25 355 0.0 3.2 0.00 0.00 0.00 58 995.4
20260502062647 26 309 1.6 8.0 0.00 0.00 0.00 56 995.2
20260502061646 26 304 3.2 8.0 0.00 0.00 0.00 55 995.1
20260502060646 26 345 1.6 8.0 0.00 0.00 0.00 54 994.9
20260502055647 26 350 1.6 11.3 0.00 0.00 0.00 54 995.0
20260502054647 26 279 3.2 8.0 0.00 0.00 0.00 54 994.9
20260502053646 26 317 3.2 8.0 0.00 0.00 0.00 54 994.9
20260502052647 26 355 3.2 12.9 0.00 0.00 0.00 54 994.9
20260502051647 26 348 1.6 9.7 0.00 0.00 0.00 56 994.9
20260502050647 26 5 3.2 11.3 0.00 0.00 0.00 58 995.0
20260502045647 27 300 3.2 12.9 0.00 0.00 0.00 56 995.0
20260502044647 27 355 1.6 8.0 0.00 0.00 0.00 55 995.1
20260502043647 27 288 4.8 14.5 0.00 0.00 0.00 54 995.1
20260502042647 27 47 1.6 11.3 0.00 0.00 0.00 56 995.1
20260502041647 27 350 3.2 14.5 0.00 0.00 0.00 58 995.2
20260502040647 26 38 1.6 8.0 0.00 0.00 0.00 59 995.2
20260502035647 26 11 4.8 8.0 0.00 0.00 0.00 58 995.4
20260502034647 27 330 1.6 8.0 0.00 0.00 0.00 57 995.4
20260502033647 27 340 3.2 12.9 0.00 0.00 0.00 55 995.5
20260502032647 27 348 3.2 9.7 0.00 0.00 0.00 56 995.6
20260502031647 28 9 1.6 11.3 0.00 0.00 0.00 57 995.7
20260502030647 27 326 1.6 8.0 0.00 0.00 0.00 58 995.9
20260502025647 27 355 1.6 8.0 0.00 0.00 0.00 59 996.1
20260502024647 28 318 1.6 9.7 0.00 0.00 0.00 59 996.2
20260502023647 27 336 3.2 12.9 0.00 0.00 0.00 61 996.4
20260502022647 27 277 3.2 9.7 0.00 0.00 0.00 59 996.4